Dewpoint
71 72 71 70 70 69 70 69 68 68 70 67 66 68 68 71 72 71 71 74 74 74 75 76 76 76 74 76 77 76 76 76 75 73 73 72 71 69 67 70 71 69
71 73 73 71 72 72 72 71 70 69 70 71 69 69 71 72 71 72 72 72 73 74 75 75 76 75 76 75 77 75 75 76 75 71 74 74 72 71 69 69 68 70
71 71 71 71 69 71 69 70 72 71 69 69 70 71 69 70 70 72 73 72 72 72 74 75 75 75 74 75 77 76 74 76 75 73 75 75 73 73 72 68 67 69
72 71 70 69 69 69 69 70 71 72 71 70 69 69 69 67 69 71 73 74 73 74 74 74 74 73 74 74 76 75 75 76 75 76 76 76 75 73 72 72 70 69
70 70 70 70 70 71 71 70 68 68 69 69 69 71 71 72 73 71 72 72 74 73 74 74 74 73 74 75 76 75 74 73 74 76 76 75 76 75 72 71 73 70
71 71 71 70 71 72 70 70 70 68 69 68 69 69 70 71 71 71 71 71 70 70 70 71 72 72 72 73 74 74 73 71 72 76 76 76 74 72 70 72 73 73
68 69 69 69 68 69 70 70 70 71 68 69 71 70 71 70 70 71 72 72 70 72 70 71 73 73 73 74 75 75 74 74 74 75 75 74 74 74 71 72 73 73
68 68 69 69 68 68 69 69 69 70 71 71 70 72 72 70 71 71 71 71 71 71 73 72 73 75 72 72 73 73 73 70 72 74 75 74 74 74 73 70 72 73
68 68 68 69 69 69 68 67 68 69 70 70 69 69 71 71 70 70 72 73 73 72 74 73 74 73 73 72 73 74 74 72 69 72 73 73 72 72 71 71 70 72
69 68 67 68 67 68 68 68 67 68 70 69 68 68 68 71 71 71 72 75 73 73 73 74 74 73 72 72 73 73 73 74 73 73 72 71 70 70 68 69 69 70
69 68 68 68 68 67 67 67 67 67 69 69 69 68 69 69 72 72 73 74 71 72 73 74 74 74 74 72 72 73 73 73 73 74 74 74 73 72 72 71 70 70
72 70 68 69 68 67 66 66 66 66 67 69 69 69 71 69 71 71 71 73 73 72 73 74 75 75 75 75 73 72 72 73 73 74 73 73 73 71 71 71 70 72
72 70 70 69 68 68 67 67 66 66 66 67 69 70 70 69 69 71 72 72 73 72 71 73 74 74 76 76 75 73 73 73 72 73 73 72 72 71 70 70 70 70
73 72 72 70 70 71 70 68 67 67 68 69 70 71 69 69 68 68 70 71 71 71 72 73 74 75 76 77 76 74 73 73 73 73 71 71 71 72 71 70 70 70
76 75 73 72 72 72 72 70 69 69 69 70 72 71 68 69 69 68 70 70 71 72 73 72 71 72 72 74 74 75 74 72 72 72 72 72 72 70 70 71 71 71
77 77 76 75 75 75 75 73 71 71 69 70 71 71 72 72 72 71 70 70 70 71 72 70 70 70 73 77 77 73 73 71 71 73 73 73 74 74 72 72 72 73
78 78 78 77 76 76 76 75 74 74 73 73 72 72 73 74 73 72 71 70 69 69 69 68 68 68 73 70 71 73 73 72 72 73 75 76 74 74 73 73 71 71
76 76 77 78 77 77 76 76 76 75 75 75 74 72 75 72 72 72 72 71 70 70 69 67 68 71 67 68 70 70 73 74 71 71 71 72 73 72 72 72 72 71
75 75 75 75 76 77 77 76 76 76 76 75 73 73 72 73 74 72 72 72 71 72 70 71 71 70 67 68 68 69 69 74 73 72 74 75 73 74 73 73 74 73
74 75 74 75 75 76 77 76 75 75 75 75 74 74 74 74 72 73 73 74 73 73 73 73 71 70 66 68 68 68 68 71 74 72 73 74 73 72 73 75 74 75
74 74 74 74 75 76 77 76 75 75 75 75 74 75 75 76 75 75 75 74 73 71 71 69 69 60 62 63 64 65 67 71 73 72 72 72 72 72 73 73 74 74
75 75 74 74 74 73 74 74 75 76 75 75 75 75 75 76 77 75 76 76 77 76 75 73 64 58 59 60 60 61 66 69 72 74 74 73 73 73 74 75 75 76
74 74 74 74 74 74 74 74 75 75 75 75 75 76 75 75 76 75 75 74 75 75 75 73 67 59 56 57 58 60 64 70 73 73 73 74 73 75 76 74 75 75
74 74 73 72 72 72 73 74 74 75 75 75 75 75 75 75 74 74 74 73 73 73 72 73 68 60 54 55 56 58 65 71 72 72 74 74 74 74 75 76 74 74
72 72 71 72 71 71 72 72 72 72 73 73 72 72 73 73 72 73 72 72 72 71 69 71 68 62 53 54 55 57 66 72 72 72 73 73 72 72 73 73 70 68
70 71 71 70 71 71 72 72 72 72 72 73 72 72 71 72 72 71 71 71 70 70 69 68 67 63 57 52 53 55 59 71 72 71 71 72 72 72 71 72 69 66